WAT3058 KSJC-KMEM

Flight info

Callsign WAT3058
Flight time 3h 23m
Altitude 35000
Route LOUPE1 SYRAH JSICA REANA DVC CIM PNH IRW FSM BRBBQ BRBBQ3
Aircraft MD11/H-SDE1E2E3FGHIJ2J3J4J5M1RWXY/LB1D1

Departure

Time 2026-05-06 00:21
Airport Norman Y. Mineta San Jose International Airport (KSJC)

Arrival

Time 2026-05-06 03:45
Airport Memphis International Airport (KMEM)
Time Latitude Longitude Altitude Speed Heading
2026-05-05 23:55 37.35565 -121.91521 75 ft 0 kts 47°
2026-05-06 00:14 37.35560 -121.91528 65 ft 4 kts 48°
2026-05-06 00:14 37.35541 -121.91551 65 ft 4 kts 47°
2026-05-06 00:14 37.35531 -121.91572 65 ft 4 kts 83°
2026-05-06 00:15 37.35531 -121.91600 66 ft 4 kts 119°
2026-05-06 00:15 37.35547 -121.91621 66 ft 4 kts 144°
2026-05-06 00:15 37.35557 -121.91631 66 ft 1 kts 139°
2026-05-06 00:15 37.35558 -121.91632 66 ft 0 kts 139°
2026-05-06 00:18 37.35531 -121.91603 66 ft 11 kts 141°
2026-05-06 00:19 37.35467 -121.91592 71 ft 6 kts 200°
2026-05-06 00:19 37.35455 -121.91609 69 ft 5 kts 227°
2026-05-06 00:19 37.35438 -121.91635 68 ft 3 kts 231°
2026-05-06 00:19 37.35418 -121.91671 70 ft 8 kts 239°
2026-05-06 00:20 37.35428 -121.91741 69 ft 9 kts 303°
2026-05-06 00:20 37.35467 -121.91794 67 ft 13 kts 316°
2026-05-06 00:20 37.35617 -121.91961 66 ft 48 kts 319°
2026-05-06 00:20 37.35992 -121.92360 62 ft 93 kts 320°
2026-05-06 00:21 37.36590 -121.93018 58 ft 136 kts 319°
2026-05-06 00:21 37.37385 -121.93894 63 ft 160 kts 319°
2026-05-06 00:21 37.38224 -121.94834 407 ft 165 kts 318°
2026-05-06 00:21 37.39078 -121.95814 860 ft 172 kts 318°
2026-05-06 00:22 37.39972 -121.96835 1594 ft 176 kts 323°
2026-05-06 00:22 37.41109 -121.97458 2249 ft 180 kts 353°
2026-05-06 00:22 37.42375 -121.97447 2882 ft 185 kts
2026-05-06 00:22 37.43722 -121.97351 3263 ft 209 kts
2026-05-06 00:23 37.45280 -121.97253 3446 ft 239 kts
2026-05-06 00:23 37.47041 -121.97154 3600 ft 267 kts
2026-05-06 00:23 37.48918 -121.97060 4406 ft 271 kts
2026-05-06 00:23 37.50784 -121.96974 5422 ft 271 kts
2026-05-06 00:24 37.52669 -121.96893 6391 ft 273 kts
2026-05-06 00:24 37.54575 -121.96819 7242 ft 275 kts
2026-05-06 00:24 37.56493 -121.96747 8054 ft 277 kts
2026-05-06 00:24 37.58425 -121.96586 8862 ft 279 kts
2026-05-06 00:25 37.60308 -121.95993 9670 ft 281 kts 21°
2026-05-06 00:25 37.62044 -121.94798 10185 ft 294 kts 36°
2026-05-06 00:25 37.63537 -121.92883 10316 ft 320 kts 52°
2026-05-06 00:25 37.64755 -121.90415 10486 ft 344 kts 59°
2026-05-06 00:26 37.65873 -121.87761 11122 ft 349 kts 60°
2026-05-06 00:26 37.66993 -121.85034 11874 ft 351 kts 60°
2026-05-06 00:26 37.68133 -121.82286 12603 ft 355 kts 60°
2026-05-06 00:26 37.69295 -121.79528 13309 ft 358 kts 60°
2026-05-06 00:27 37.70478 -121.76751 13997 ft 361 kts 59°
2026-05-06 00:27 37.71677 -121.73957 14616 ft 363 kts 59°
2026-05-06 00:27 37.72892 -121.71140 15205 ft 366 kts 59°
2026-05-06 00:27 37.74113 -121.68312 15793 ft 369 kts 59°
2026-05-06 00:28 37.75330 -121.65494 16380 ft 371 kts 59°
2026-05-06 00:28 37.76572 -121.62620 16892 ft 374 kts 59°
2026-05-06 00:28 37.77822 -121.59722 17459 ft 377 kts 59°
2026-05-06 00:28 37.79082 -121.56799 18002 ft 380 kts 59°
2026-05-06 00:29 37.80349 -121.53857 18497 ft 383 kts 59°
2026-05-06 00:29 37.81624 -121.50895 18966 ft 384 kts 59°
2026-05-06 00:29 37.82900 -121.47926 19451 ft 385 kts 59°
2026-05-06 00:29 37.84180 -121.44945 19907 ft 386 kts 60°
2026-05-06 00:30 37.85446 -121.41996 20363 ft 387 kts 60°
2026-05-06 00:30 37.86733 -121.38993 20826 ft 389 kts 60°
2026-05-06 00:30 37.88022 -121.35985 21289 ft 390 kts 60°
2026-05-06 00:30 37.89317 -121.32960 21759 ft 391 kts 60°
2026-05-06 00:31 37.90613 -121.29928 22230 ft 393 kts 60°
2026-05-06 00:31 37.91834 -121.27071 22674 ft 394 kts 60°
2026-05-06 00:31 37.93139 -121.24013 23147 ft 396 kts 60°
2026-05-06 00:31 37.94450 -121.20938 23618 ft 398 kts 60°
2026-05-06 00:32 37.95323 -121.18890 23900 ft 399 kts 60°
2026-05-06 00:32 37.97090 -121.14737 24454 ft 401 kts 60°
2026-05-06 00:32 37.98397 -121.11660 24869 ft 403 kts 60°
2026-05-06 00:32 37.99546 -121.08408 25287 ft 406 kts 69°
2026-05-06 00:33 38.00304 -121.04937 25708 ft 411 kts 74°
2026-05-06 00:33 38.00871 -121.01375 26114 ft 414 kts 76°
2026-05-06 00:33 38.01378 -120.97770 26524 ft 416 kts 77°
2026-05-06 00:33 38.01881 -120.94158 26945 ft 417 kts 76°
2026-05-06 00:34 38.02400 -120.90526 27353 ft 419 kts 76°
2026-05-06 00:34 38.02753 -120.88116 27624 ft 420 kts 76°
2026-05-06 00:34 38.03297 -120.84467 28048 ft 422 kts 75°
2026-05-06 00:34 38.04032 -120.79608 28551 ft 425 kts 75°
2026-05-06 00:35 38.04593 -120.75923 28966 ft 426 kts 75°
2026-05-06 00:35 38.05157 -120.72221 29370 ft 428 kts 75°
2026-05-06 00:35 38.05721 -120.68508 29709 ft 430 kts 75°
2026-05-06 00:35 38.06097 -120.66033 29898 ft 432 kts 75°
2026-05-06 00:36 38.06663 -120.62292 30204 ft 432 kts 75°
2026-05-06 00:36 38.07229 -120.58544 30422 ft 433 kts 75°
2026-05-06 00:36 38.07794 -120.54786 30673 ft 433 kts 75°
2026-05-06 00:36 38.08357 -120.51037 30943 ft 432 kts 75°
2026-05-06 00:37 38.09097 -120.46094 31337 ft 430 kts 75°
2026-05-06 00:37 38.09473 -120.43574 31510 ft 429 kts 75°
2026-05-06 00:37 38.10027 -120.39862 31767 ft 428 kts 75°
2026-05-06 00:37 38.10572 -120.36200 32030 ft 427 kts 75°
2026-05-06 00:38 38.11122 -120.32501 32263 ft 426 kts 75°
2026-05-06 00:38 38.11669 -120.28809 32493 ft 425 kts 75°
2026-05-06 00:38 38.12214 -120.25124 32715 ft 424 kts 75°
2026-05-06 00:38 38.12758 -120.21444 32933 ft 424 kts 75°
2026-05-06 00:39 38.13299 -120.17766 33134 ft 423 kts 75°
2026-05-06 00:39 38.13838 -120.14096 33352 ft 422 kts 75°
2026-05-06 00:39 38.14375 -120.10432 33558 ft 422 kts 75°
2026-05-06 00:39 38.14910 -120.06772 33742 ft 421 kts 75°
2026-05-06 00:40 38.15429 -120.03159 33904 ft 421 kts 75°
2026-05-06 00:40 38.15946 -119.99504 34078 ft 421 kts 75°
2026-05-06 00:40 38.16462 -119.95853 34218 ft 420 kts 75°
2026-05-06 00:40 38.16983 -119.92200 34365 ft 420 kts 75°
2026-05-06 00:41 38.17505 -119.88553 34480 ft 419 kts 75°
2026-05-06 00:41 38.18030 -119.84903 34596 ft 419 kts 75°
2026-05-06 00:41 38.18552 -119.81264 34720 ft 419 kts 75°
2026-05-06 00:41 38.19076 -119.77618 34894 ft 418 kts 75°
2026-05-06 00:42 38.19590 -119.74030 34981 ft 419 kts 75°
2026-05-06 00:42 38.20636 -119.66713 35007 ft 423 kts 75°
2026-05-06 00:43 38.21681 -119.59354 35003 ft 423 kts 75°
2026-05-06 00:43 38.22718 -119.52010 34993 ft 422 kts 75°
2026-05-06 00:44 38.23751 -119.44666 34997 ft 422 kts 75°
2026-05-06 00:44 38.24772 -119.37376 34986 ft 421 kts 75°
2026-05-06 00:45 38.25793 -119.30046 34986 ft 421 kts 75°
2026-05-06 00:45 38.26812 -119.22707 34977 ft 421 kts 75°
2026-05-06 00:46 38.27825 -119.15371 34976 ft 421 kts 75°
2026-05-06 00:46 38.28828 -119.08076 34971 ft 422 kts 75°
2026-05-06 00:47 38.29830 -119.00722 34962 ft 422 kts 76°
2026-05-06 00:47 38.30802 -118.93354 34964 ft 422 kts 76°
2026-05-06 00:48 38.31782 -118.85989 34966 ft 422 kts 76°
2026-05-06 00:48 38.32769 -118.78628 34965 ft 422 kts 76°
2026-05-06 00:49 38.33749 -118.71318 34971 ft 421 kts 76°
2026-05-06 00:49 38.34732 -118.63957 34968 ft 422 kts 76°
2026-05-06 00:50 38.35711 -118.56588 34970 ft 422 kts 76°
2026-05-06 00:50 38.36684 -118.49215 34966 ft 421 kts 76°
2026-05-06 00:51 38.37652 -118.41852 34953 ft 422 kts 76°
2026-05-06 00:51 38.38609 -118.34529 34945 ft 422 kts 76°
2026-05-06 00:52 38.39570 -118.27151 34928 ft 422 kts 76°
2026-05-06 00:52 38.40525 -118.19773 34909 ft 422 kts 76°
2026-05-06 00:53 38.41475 -118.12390 34909 ft 422 kts 76°
2026-05-06 00:53 38.42415 -118.05052 34910 ft 422 kts 76°
2026-05-06 00:54 38.43356 -117.97664 34911 ft 422 kts 76°
2026-05-06 00:54 38.44267 -117.90267 34905 ft 422 kts 76°
2026-05-06 00:55 38.45178 -117.82873 34909 ft 422 kts 76°
2026-05-06 00:55 38.46093 -117.75538 34897 ft 421 kts 76°
2026-05-06 00:56 38.47014 -117.68149 34897 ft 422 kts 76°
2026-05-06 00:56 38.47932 -117.60757 34900 ft 422 kts 76°
2026-05-06 00:57 38.48846 -117.53356 34901 ft 422 kts 76°
2026-05-06 00:57 38.49750 -117.45997 34894 ft 422 kts 76°
2026-05-06 00:58 38.50655 -117.38591 34891 ft 422 kts 76°
2026-05-06 00:58 38.51556 -117.31172 34894 ft 423 kts 76°
2026-05-06 00:59 38.51970 -117.23636 34890 ft 430 kts 85°
2026-05-06 00:59 38.51738 -117.15986 34880 ft 432 kts 87°
2026-05-06 01:00 38.51449 -117.08381 34882 ft 431 kts 86°
2026-05-06 01:00 38.51197 -117.00728 34878 ft 432 kts 86°
2026-05-06 01:01 38.50963 -116.93075 34878 ft 432 kts 86°
2026-05-06 01:01 38.50729 -116.85412 34882 ft 432 kts 86°
2026-05-06 01:02 38.50490 -116.77751 34855 ft 432 kts 86°
2026-05-06 01:02 38.50247 -116.70141 34873 ft 432 kts 86°
2026-05-06 01:03 38.49997 -116.62474 34869 ft 433 kts 86°
2026-05-06 01:03 38.49742 -116.54798 34856 ft 433 kts 86°
2026-05-06 01:04 38.49481 -116.47108 34852 ft 434 kts 86°
2026-05-06 01:04 38.49217 -116.39470 34843 ft 434 kts 87°
2026-05-06 01:05 38.48946 -116.31774 34829 ft 434 kts 87°
2026-05-06 01:05 38.48669 -116.24066 34827 ft 435 kts 87°
2026-05-06 01:06 38.48364 -116.16343 34819 ft 436 kts 87°
2026-05-06 01:06 38.48052 -116.08623 34814 ft 436 kts 87°
2026-05-06 01:07 38.47753 -116.00935 34809 ft 437 kts 87°
2026-05-06 01:07 38.47453 -115.93186 34809 ft 437 kts 87°
2026-05-06 01:08 38.47149 -115.85433 34808 ft 437 kts 87°
2026-05-06 01:08 38.46840 -115.77679 34812 ft 438 kts 88°
2026-05-06 01:09 38.46528 -115.69976 34814 ft 438 kts 88°
2026-05-06 01:09 38.46208 -115.62224 34808 ft 438 kts 88°
2026-05-06 01:10 38.45890 -115.54626 34814 ft 438 kts 88°
2026-05-06 01:10 38.45560 -115.46877 34806 ft 438 kts 88°
2026-05-06 01:11 38.45225 -115.39123 34814 ft 438 kts 88°
2026-05-06 01:11 38.44885 -115.31387 34807 ft 437 kts 88°
2026-05-06 01:12 38.44543 -115.23690 34808 ft 437 kts 88°
2026-05-06 01:12 38.44191 -115.15959 34801 ft 436 kts 88°
2026-05-06 01:13 38.43807 -115.08232 34801 ft 436 kts 88°
2026-05-06 01:13 38.43429 -115.00512 34801 ft 436 kts 88°
2026-05-06 01:14 38.42879 -114.88983 34799 ft 436 kts 88°
2026-05-06 01:14 38.42507 -114.81251 34799 ft 437 kts 88°
2026-05-06 01:15 38.42129 -114.73519 34802 ft 437 kts 88°
2026-05-06 01:15 38.41746 -114.65774 34801 ft 437 kts 88°
2026-05-06 01:16 38.41410 -114.59075 34798 ft 439 kts 88°
2026-05-06 01:16 38.41016 -114.51307 34804 ft 439 kts 88°
2026-05-06 01:17 38.40608 -114.43529 34800 ft 441 kts 89°
2026-05-06 01:17 38.40012 -114.35797 34800 ft 442 kts 91°
2026-05-06 01:18 38.39326 -114.27987 34799 ft 443 kts 91°
2026-05-06 01:18 38.38647 -114.20186 34799 ft 444 kts 91°
2026-05-06 01:19 38.37971 -114.12351 34798 ft 444 kts 91°
2026-05-06 01:19 38.37295 -114.04525 34796 ft 444 kts 91°
2026-05-06 01:20 38.36614 -113.96698 34800 ft 445 kts 91°
2026-05-06 01:20 38.35931 -113.88918 34791 ft 445 kts 91°
2026-05-06 01:21 38.35237 -113.81067 34785 ft 446 kts 91°
2026-05-06 01:21 38.34535 -113.73202 34785 ft 447 kts 91°
2026-05-06 01:22 38.33828 -113.65330 34778 ft 448 kts 91°
2026-05-06 01:22 38.33114 -113.57448 34768 ft 448 kts 91°
2026-05-06 01:23 38.32400 -113.49611 34770 ft 449 kts 91°
2026-05-06 01:23 38.31674 -113.41713 34772 ft 449 kts 91°
2026-05-06 01:24 38.30924 -113.33808 34793 ft 450 kts 92°
2026-05-06 01:24 38.30158 -113.25894 34808 ft 450 kts 92°
2026-05-06 01:25 38.29410 -113.18035 34832 ft 451 kts 92°
2026-05-06 01:25 38.28659 -113.10121 34851 ft 450 kts 92°
2026-05-06 01:26 38.27905 -113.02201 34851 ft 451 kts 92°
2026-05-06 01:26 38.27144 -112.94281 34844 ft 451 kts 92°
2026-05-06 01:27 38.26377 -112.86353 34832 ft 451 kts 92°
2026-05-06 01:27 38.25610 -112.78486 34820 ft 451 kts 92°
2026-05-06 01:28 38.24832 -112.70559 34808 ft 452 kts 93°
2026-05-06 01:28 38.24048 -112.62627 34794 ft 452 kts 93°
2026-05-06 01:29 38.23259 -112.54694 34797 ft 452 kts 93°
2026-05-06 01:29 38.22468 -112.46808 34807 ft 453 kts 93°
2026-05-06 01:30 38.21666 -112.38864 34815 ft 453 kts 93°
2026-05-06 01:30 38.20850 -112.30919 34804 ft 454 kts 94°
2026-05-06 01:31 38.20005 -112.22968 34812 ft 454 kts 94°
2026-05-06 01:31 38.19176 -112.15060 34818 ft 454 kts 94°
2026-05-06 01:32 38.18349 -112.07101 34817 ft 454 kts 94°
2026-05-06 01:32 38.17517 -111.99133 34824 ft 455 kts 94°
2026-05-06 01:33 38.16678 -111.91150 34821 ft 456 kts 94°
2026-05-06 01:33 38.15833 -111.83164 34826 ft 456 kts 94°
2026-05-06 01:34 38.14980 -111.75163 34822 ft 457 kts 94°
2026-05-06 01:34 38.14128 -111.67211 34818 ft 458 kts 94°
2026-05-06 01:35 38.13263 -111.59206 34808 ft 458 kts 95°
2026-05-06 01:35 38.12391 -111.51180 34799 ft 459 kts 95°
2026-05-06 01:36 38.11554 -111.43526 34783 ft 460 kts 95°
2026-05-06 01:36 38.10656 -111.35366 34766 ft 460 kts 95°
2026-05-06 01:37 38.09765 -111.27368 34747 ft 461 kts 95°
2026-05-06 01:37 38.08835 -111.19309 34733 ft 462 kts 95°
2026-05-06 01:38 38.07914 -111.11243 34715 ft 462 kts 95°
2026-05-06 01:38 38.06998 -111.03161 34708 ft 463 kts 96°
2026-05-06 01:39 38.06079 -110.95072 34698 ft 464 kts 96°
2026-05-06 01:39 38.05159 -110.87023 34692 ft 464 kts 96°
2026-05-06 01:40 38.04226 -110.78911 34683 ft 465 kts 96°
2026-05-06 01:40 38.03285 -110.70786 34678 ft 466 kts 96°
2026-05-06 01:41 38.02337 -110.62647 34675 ft 467 kts 96°
2026-05-06 01:41 38.01382 -110.54495 34671 ft 468 kts 97°
2026-05-06 01:42 38.00426 -110.46391 34665 ft 468 kts 97°
2026-05-06 01:42 37.99455 -110.38217 34667 ft 469 kts 97°
2026-05-06 01:43 37.98478 -110.30036 34674 ft 470 kts 97°
2026-05-06 01:43 37.97485 -110.21840 34681 ft 471 kts 97°
2026-05-06 01:44 37.96463 -110.13640 34686 ft 472 kts 97°
2026-05-06 01:44 37.95457 -110.05477 34689 ft 473 kts 97°
2026-05-06 01:45 37.94448 -109.97239 34696 ft 473 kts 97°
2026-05-06 01:45 37.93434 -109.88995 34701 ft 475 kts 97°
2026-05-06 01:46 37.92410 -109.80715 34702 ft 477 kts 97°
2026-05-06 01:46 37.91383 -109.72467 34704 ft 479 kts 97°
2026-05-06 01:47 37.90338 -109.64123 34712 ft 481 kts 98°
2026-05-06 01:47 37.89282 -109.55749 34730 ft 483 kts 98°
2026-05-06 01:48 37.88216 -109.47346 34740 ft 485 kts 98°
2026-05-06 01:48 37.87139 -109.38905 34733 ft 487 kts 99°
2026-05-06 01:49 37.86060 -109.30488 34721 ft 488 kts 99°
2026-05-06 01:49 37.84964 -109.21994 34704 ft 490 kts 99°
2026-05-06 01:50 37.83835 -109.13493 34689 ft 491 kts 100°
2026-05-06 01:50 37.82699 -109.04979 34687 ft 491 kts 100°
2026-05-06 01:51 37.81479 -108.97007 34683 ft 492 kts 107°
2026-05-06 01:51 37.79247 -108.88840 34682 ft 493 kts 113°
2026-05-06 01:52 37.76711 -108.80778 34679 ft 494 kts 114°
2026-05-06 01:52 37.74202 -108.72669 34678 ft 496 kts 113°
2026-05-06 01:53 37.71732 -108.64516 34687 ft 498 kts 113°
2026-05-06 01:53 37.69263 -108.56334 34699 ft 499 kts 114°
2026-05-06 01:54 37.66795 -108.48183 34707 ft 501 kts 114°
2026-05-06 01:54 37.64296 -108.39961 34721 ft 503 kts 114°
2026-05-06 01:55 37.61780 -108.31711 34736 ft 505 kts 115°
2026-05-06 01:55 37.59266 -108.23495 34742 ft 507 kts 115°
2026-05-06 01:56 37.56719 -108.15191 34749 ft 509 kts 115°
2026-05-06 01:56 37.54158 -108.06868 34749 ft 510 kts 116°
2026-05-06 01:57 37.51574 -107.98516 34759 ft 512 kts 116°
2026-05-06 01:57 37.48957 -107.90164 34760 ft 513 kts 117°
2026-05-06 01:58 37.46360 -107.81852 34786 ft 514 kts 117°
2026-05-06 01:58 37.43744 -107.73456 34814 ft 516 kts 117°
2026-05-06 01:59 37.41119 -107.65047 34826 ft 518 kts 117°
2026-05-06 01:59 37.38476 -107.56608 34821 ft 519 kts 118°
2026-05-06 02:00 37.35838 -107.48211 34813 ft 521 kts 118°
2026-05-06 02:00 37.33178 -107.39768 34833 ft 522 kts 118°
2026-05-06 02:01 37.30486 -107.31250 34887 ft 524 kts 119°
2026-05-06 02:01 37.27787 -107.22738 34936 ft 526 kts 120°
2026-05-06 02:02 37.25069 -107.14193 34956 ft 528 kts 120°
2026-05-06 02:02 37.22334 -107.05616 34955 ft 530 kts 121°
2026-05-06 02:03 37.19582 -106.97083 34964 ft 532 kts 121°
2026-05-06 02:03 37.16790 -106.88464 34927 ft 535 kts 122°
2026-05-06 02:04 37.13999 -106.79811 34896 ft 536 kts 121°
2026-05-06 02:04 37.11204 -106.71144 34855 ft 536 kts 122°
2026-05-06 02:05 37.08399 -106.62477 34863 ft 537 kts 122°
2026-05-06 02:05 37.05603 -106.53865 34863 ft 538 kts 122°
2026-05-06 02:06 37.02777 -106.45188 34862 ft 539 kts 122°
2026-05-06 02:06 36.99942 -106.36507 34854 ft 539 kts 122°
2026-05-06 02:07 36.97096 -106.27821 34852 ft 540 kts 122°
2026-05-06 02:07 36.94242 -106.19135 34849 ft 540 kts 123°
2026-05-06 02:08 36.91402 -106.10515 34848 ft 540 kts 123°
2026-05-06 02:08 36.88519 -106.01849 34852 ft 540 kts 123°
2026-05-06 02:09 36.85616 -105.93182 34849 ft 542 kts 123°
2026-05-06 02:09 36.82717 -105.84494 34839 ft 543 kts 123°
2026-05-06 02:10 36.79814 -105.75788 34835 ft 544 kts 123°
2026-05-06 02:10 36.76899 -105.67068 34835 ft 545 kts 123°
2026-05-06 02:11 36.74106 -105.58740 34851 ft 546 kts 123°
2026-05-06 02:11 36.71170 -105.50012 34864 ft 546 kts 124°
2026-05-06 02:12 36.68223 -105.41279 34895 ft 547 kts 124°
2026-05-06 02:12 36.65264 -105.32535 34923 ft 547 kts 124°
2026-05-06 02:13 36.62300 -105.23867 34945 ft 547 kts 125°
2026-05-06 02:13 36.59158 -105.15273 34936 ft 545 kts 126°
2026-05-06 02:14 36.55955 -105.06716 34914 ft 546 kts 126°
2026-05-06 02:14 36.52756 -104.98142 34862 ft 547 kts 126°
2026-05-06 02:15 36.49562 -104.89555 34812 ft 547 kts 126°
2026-05-06 02:15 36.46384 -104.81025 34775 ft 548 kts 126°
2026-05-06 02:16 36.43172 -104.72432 34762 ft 549 kts 127°
2026-05-06 02:16 36.39952 -104.63844 34763 ft 549 kts 127°
2026-05-06 02:17 36.36725 -104.55260 34770 ft 549 kts 127°
2026-05-06 02:17 36.33513 -104.46739 34776 ft 549 kts 127°
2026-05-06 02:18 36.30275 -104.38171 34783 ft 548 kts 127°
2026-05-06 02:18 36.27032 -104.29633 34791 ft 547 kts 127°
2026-05-06 02:19 36.23769 -104.21128 34793 ft 546 kts 127°
2026-05-06 02:19 36.20516 -104.12634 34800 ft 546 kts 127°
2026-05-06 02:20 36.15666 -103.99956 34827 ft 546 kts 127°
2026-05-06 02:21 36.12412 -103.91474 34827 ft 546 kts 127°
2026-05-06 02:21 36.09149 -103.82990 34826 ft 546 kts 127°
2026-05-06 02:22 36.05901 -103.74569 34836 ft 546 kts 128°
2026-05-06 02:22 36.02624 -103.66098 34829 ft 547 kts 128°
2026-05-06 02:23 35.99340 -103.57629 34832 ft 547 kts 128°
2026-05-06 02:23 35.96046 -103.49159 34842 ft 547 kts 128°
2026-05-06 02:24 35.92743 -103.40686 34845 ft 548 kts 128°
2026-05-06 02:24 35.89436 -103.32287 34851 ft 548 kts 128°
2026-05-06 02:25 35.86096 -103.23826 34856 ft 549 kts 128°
2026-05-06 02:25 35.82759 -103.15350 34854 ft 550 kts 128°
2026-05-06 02:26 35.79418 -103.06867 34856 ft 551 kts 128°
2026-05-06 02:26 35.76089 -102.98437 34870 ft 551 kts 128°
2026-05-06 02:27 35.72724 -102.89939 34863 ft 552 kts 128°
2026-05-06 02:27 35.69348 -102.81439 34865 ft 553 kts 128°
2026-05-06 02:28 35.66366 -102.73947 34865 ft 554 kts 128°
2026-05-06 02:28 35.62991 -102.65492 34861 ft 555 kts 128°
2026-05-06 02:29 35.59584 -102.56977 34866 ft 556 kts 128°
2026-05-06 02:29 35.56168 -102.48460 34865 ft 556 kts 128°
2026-05-06 02:30 35.53426 -102.41682 34867 ft 555 kts 128°
2026-05-06 02:30 35.50524 -102.34538 34864 ft 555 kts 128°
2026-05-06 02:31 35.47088 -102.26057 34863 ft 554 kts 128°
2026-05-06 02:31 35.43658 -102.17588 34859 ft 554 kts 128°
2026-05-06 02:32 35.40231 -102.09143 34859 ft 553 kts 128°
2026-05-06 02:32 35.36824 -102.00773 34887 ft 552 kts 128°
2026-05-06 02:33 35.33391 -101.92361 34909 ft 552 kts 128°
2026-05-06 02:33 35.32251 -101.89573 34915 ft 552 kts 128°
2026-05-06 02:34 35.26507 -101.75560 34948 ft 552 kts 128°
2026-05-06 02:34 35.23544 -101.66786 34950 ft 572 kts 113°
2026-05-06 02:34 35.22814 -101.62024 34952 ft 584 kts 103°
2026-05-06 02:35 35.22658 -101.57033 34946 ft 593 kts 92°
2026-05-06 02:35 35.23813 -101.46963 34922 ft 600 kts 83°
2026-05-06 02:36 35.25038 -101.36881 34904 ft 598 kts 88°
2026-05-06 02:36 35.25657 -101.26766 34880 ft 595 kts 92°
2026-05-06 02:37 35.26030 -101.16720 34885 ft 595 kts 92°
2026-05-06 02:37 35.26409 -101.06607 34891 ft 595 kts 92°
2026-05-06 02:38 35.26824 -100.96480 34891 ft 596 kts 92°
2026-05-06 02:38 35.27245 -100.86357 34891 ft 596 kts 92°
2026-05-06 02:39 35.27652 -100.76294 34904 ft 596 kts 92°
2026-05-06 02:39 35.28051 -100.66157 34912 ft 596 kts 92°
2026-05-06 02:40 35.28415 -100.56025 34917 ft 596 kts 93°
2026-05-06 02:40 35.28774 -100.45874 34916 ft 597 kts 92°
2026-05-06 02:41 35.29142 -100.35786 34911 ft 597 kts 92°
2026-05-06 02:41 35.29510 -100.25634 34909 ft 597 kts 93°
2026-05-06 02:42 35.29868 -100.15486 34911 ft 597 kts 93°
2026-05-06 02:42 35.30216 -100.05334 34914 ft 597 kts 93°
2026-05-06 02:43 35.30553 -99.95252 34910 ft 597 kts 93°
2026-05-06 02:43 35.30884 -99.85110 34909 ft 597 kts 93°
2026-05-06 02:44 35.31207 -99.74950 34918 ft 597 kts 93°
2026-05-06 02:44 35.31520 -99.64801 34924 ft 597 kts 93°
2026-05-06 02:45 35.31800 -99.54655 34930 ft 596 kts 93°
2026-05-06 02:45 35.32072 -99.44573 34935 ft 597 kts 93°
2026-05-06 02:46 35.32356 -99.34415 34940 ft 597 kts 93°
2026-05-06 02:46 35.32638 -99.24260 34942 ft 597 kts 93°
2026-05-06 02:47 35.32911 -99.14106 34937 ft 597 kts 93°
2026-05-06 02:47 35.33175 -99.03951 34932 ft 597 kts 93°
2026-05-06 02:48 35.33427 -98.93858 34924 ft 597 kts 93°
2026-05-06 02:48 35.33673 -98.83694 34931 ft 597 kts 93°
2026-05-06 02:49 35.33910 -98.73546 34939 ft 597 kts 93°
2026-05-06 02:49 35.34139 -98.63377 34937 ft 598 kts 93°
2026-05-06 02:50 35.34335 -98.53280 34937 ft 597 kts 93°
2026-05-06 02:50 35.34523 -98.43096 34929 ft 598 kts 93°
2026-05-06 02:51 35.34721 -98.32913 34926 ft 598 kts 93°
2026-05-06 02:51 35.34919 -98.22733 34936 ft 598 kts 93°
2026-05-06 02:52 35.35106 -98.12617 34940 ft 598 kts 93°
2026-05-06 02:52 35.35283 -98.02434 34950 ft 598 kts 93°
2026-05-06 02:53 35.35453 -97.92234 34945 ft 598 kts 93°
2026-05-06 02:53 35.35614 -97.82044 34948 ft 599 kts 93°
2026-05-06 02:54 35.35765 -97.71915 34941 ft 599 kts 93°
2026-05-06 02:54 35.35910 -97.61719 34944 ft 599 kts 93°
2026-05-06 02:55 35.36084 -97.51521 34942 ft 599 kts 92°
2026-05-06 02:55 35.36300 -97.41317 34922 ft 599 kts 92°
2026-05-06 02:56 35.36522 -97.31172 34924 ft 600 kts 92°
2026-05-06 02:56 35.36733 -97.20947 34922 ft 600 kts 92°
2026-05-06 02:57 35.36933 -97.10722 34944 ft 601 kts 92°
2026-05-06 02:57 35.37123 -97.00490 34953 ft 601 kts 92°
2026-05-06 02:58 35.37305 -96.90255 34950 ft 601 kts 92°
2026-05-06 02:58 35.37477 -96.80083 34950 ft 601 kts 92°
2026-05-06 02:59 35.37642 -96.69837 34932 ft 601 kts 92°
2026-05-06 02:59 35.37795 -96.59592 34933 ft 602 kts 92°
2026-05-06 03:00 35.37912 -96.49333 34929 ft 602 kts 92°
2026-05-06 03:00 35.38032 -96.39144 34927 ft 602 kts 92°
2026-05-06 03:01 35.38161 -96.28877 34926 ft 603 kts 92°
2026-05-06 03:01 35.38285 -96.18601 34924 ft 603 kts 92°
2026-05-06 03:02 35.38399 -96.08322 34923 ft 603 kts 92°
2026-05-06 03:02 35.38503 -95.98106 34928 ft 604 kts 92°
2026-05-06 03:03 35.38598 -95.87800 34933 ft 605 kts 92°
2026-05-06 03:03 35.38686 -95.77496 34921 ft 605 kts 92°
2026-05-06 03:04 35.38764 -95.67195 34914 ft 605 kts 92°
2026-05-06 03:04 35.38828 -95.56958 34915 ft 605 kts 92°
2026-05-06 03:05 35.38858 -95.46652 34918 ft 605 kts 92°
2026-05-06 03:05 35.38894 -95.36346 34901 ft 605 kts 92°
2026-05-06 03:06 35.38936 -95.26038 34896 ft 605 kts 92°
2026-05-06 03:06 35.38973 -95.15728 34893 ft 605 kts 92°
2026-05-06 03:07 35.38999 -95.05494 34893 ft 605 kts 92°
2026-05-06 03:07 35.39016 -94.95185 34884 ft 605 kts 92°
2026-05-06 03:08 35.39024 -94.84872 34887 ft 605 kts 92°
2026-05-06 03:08 35.39023 -94.74564 34888 ft 605 kts 92°
2026-05-06 03:09 35.39014 -94.64329 34882 ft 605 kts 92°
2026-05-06 03:09 35.38988 -94.54007 34856 ft 605 kts 92°
2026-05-06 03:10 35.38930 -94.43695 34861 ft 605 kts 93°
2026-05-06 03:10 35.38880 -94.33378 34853 ft 605 kts 92°
2026-05-06 03:11 35.39482 -94.23167 34852 ft 607 kts 80°
2026-05-06 03:11 35.41296 -94.13074 34841 ft 606 kts 75°
2026-05-06 03:12 35.43307 -94.03034 34826 ft 606 kts 75°
2026-05-06 03:12 35.45177 -93.92950 34810 ft 607 kts 76°
2026-05-06 03:13 35.46943 -93.82905 34802 ft 607 kts 77°
2026-05-06 03:13 35.48705 -93.72775 34803 ft 607 kts 77°
2026-05-06 03:14 35.50469 -93.62651 34798 ft 607 kts 77°
2026-05-06 03:14 35.52230 -93.52526 34796 ft 606 kts 77°
2026-05-06 03:15 35.53969 -93.42475 34800 ft 606 kts 77°
2026-05-06 03:15 35.55710 -93.32354 34802 ft 605 kts 77°
2026-05-06 03:16 35.57419 -93.22235 34815 ft 605 kts 77°
2026-05-06 03:16 35.59115 -93.12117 34820 ft 604 kts 77°
2026-05-06 03:17 35.60807 -93.02086 34825 ft 603 kts 77°
2026-05-06 03:17 35.62508 -92.91988 34832 ft 603 kts 77°
2026-05-06 03:18 35.64201 -92.81891 34851 ft 603 kts 77°
2026-05-06 03:18 35.65883 -92.71790 34863 ft 603 kts 77°
2026-05-06 03:19 35.67545 -92.61757 34867 ft 603 kts 77°
2026-05-06 03:19 35.69208 -92.51660 34882 ft 602 kts 77°
2026-05-06 03:20 35.71684 -92.36524 34869 ft 601 kts 77°
2026-05-06 03:20 35.73315 -92.26432 34868 ft 599 kts 77°
2026-05-06 03:21 35.74095 -92.21505 34697 ft 591 kts 77°
2026-05-06 03:21 35.74879 -92.16552 34284 ft 589 kts 77°
2026-05-06 03:21 35.75665 -92.11606 33659 ft 589 kts 77°
2026-05-06 03:21 35.76453 -92.06672 32955 ft 586 kts 77°
2026-05-06 03:22 35.77238 -92.01759 32317 ft 584 kts 77°
2026-05-06 03:22 35.78020 -91.96867 31702 ft 582 kts 77°
2026-05-06 03:22 35.78796 -91.91989 31088 ft 578 kts 78°
2026-05-06 03:22 35.79567 -91.87142 30486 ft 576 kts 78°
2026-05-06 03:23 35.80332 -91.82305 29879 ft 573 kts 78°
2026-05-06 03:23 35.80988 -91.77539 29189 ft 572 kts 83°
2026-05-06 03:23 35.81140 -91.72657 28370 ft 569 kts 95°
2026-05-06 03:23 35.80588 -91.67875 27582 ft 559 kts 107°
2026-05-06 03:24 35.79357 -91.63406 26847 ft 544 kts 120°
2026-05-06 03:24 35.77637 -91.59324 26137 ft 533 kts 126°
2026-05-06 03:24 35.75784 -91.55409 25416 ft 527 kts 126°
2026-05-06 03:24 35.73986 -91.51497 24695 ft 522 kts 124°
2026-05-06 03:25 35.72310 -91.47557 23992 ft 518 kts 121°
2026-05-06 03:25 35.70761 -91.43644 23264 ft 513 kts 120°
2026-05-06 03:25 35.69272 -91.39689 22472 ft 507 kts 119°
2026-05-06 03:25 35.67831 -91.35766 21823 ft 499 kts 118°
2026-05-06 03:26 35.66424 -91.31907 21480 ft 488 kts 119°
2026-05-06 03:26 35.65055 -91.28163 20966 ft 476 kts 119°
2026-05-06 03:26 35.63696 -91.24488 20226 ft 465 kts 120°
2026-05-06 03:26 35.62355 -91.20895 19492 ft 461 kts 120°
2026-05-06 03:27 35.61016 -91.17326 18763 ft 459 kts 120°
2026-05-06 03:27 35.59681 -91.13771 18034 ft 456 kts 120°
2026-05-06 03:27 35.58378 -91.10297 17336 ft 451 kts 120°
2026-05-06 03:27 35.57072 -91.06815 16637 ft 446 kts 120°
2026-05-06 03:28 35.55787 -91.03383 16136 ft 437 kts 120°
2026-05-06 03:28 35.54536 -91.00042 15762 ft 425 kts 120°
2026-05-06 03:28 35.53316 -90.96786 15399 ft 416 kts 120°
2026-05-06 03:28 35.52108 -90.93574 15077 ft 412 kts 120°
2026-05-06 03:29 35.50910 -90.90396 14981 ft 411 kts 120°
2026-05-06 03:29 35.49734 -90.87165 14280 ft 417 kts 118°
2026-05-06 03:29 35.48603 -90.83880 13425 ft 415 kts 117°
2026-05-06 03:29 35.47539 -90.80693 12512 ft 403 kts 117°
2026-05-06 03:30 35.46500 -90.77547 11652 ft 392 kts 117°
2026-05-06 03:30 35.45491 -90.74496 11142 ft 383 kts 117°
2026-05-06 03:30 35.44488 -90.71483 10780 ft 378 kts 117°
2026-05-06 03:30 35.43518 -90.68572 10419 ft 358 kts 117°
2026-05-06 03:31 35.42608 -90.65833 10162 ft 336 kts 117°
2026-05-06 03:31 35.41911 -90.63184 9990 ft 320 kts 104°
2026-05-06 03:31 35.41669 -90.60472 9931 ft 320 kts 95°
2026-05-06 03:31 35.41600 -90.57754 9886 ft 319 kts 93°
2026-05-06 03:32 35.41576 -90.55075 9819 ft 318 kts 92°
2026-05-06 03:32 35.41559 -90.52364 9754 ft 318 kts 92°
2026-05-06 03:32 35.41538 -90.49655 9703 ft 317 kts 92°
2026-05-06 03:32 35.41513 -90.46953 9639 ft 317 kts 93°
2026-05-06 03:33 35.41485 -90.44248 9577 ft 317 kts 93°
2026-05-06 03:33 35.41453 -90.41554 9510 ft 316 kts 93°
2026-05-06 03:33 35.41420 -90.38867 9451 ft 315 kts 93°
2026-05-06 03:33 35.41385 -90.36184 9380 ft 314 kts 93°
2026-05-06 03:34 35.41349 -90.33503 9324 ft 315 kts 93°
2026-05-06 03:34 35.41313 -90.30855 9262 ft 315 kts 93°
2026-05-06 03:34 35.41276 -90.28186 9216 ft 312 kts 93°
2026-05-06 03:34 35.41239 -90.25518 9166 ft 313 kts 93°
2026-05-06 03:35 35.41200 -90.22850 9100 ft 312 kts 94°
2026-05-06 03:35 35.41160 -90.20189 9038 ft 312 kts 93°
2026-05-06 03:35 35.41121 -90.17527 8982 ft 312 kts 93°
2026-05-06 03:35 35.41081 -90.14868 8916 ft 312 kts 93°
2026-05-06 03:36 35.41040 -90.12208 8749 ft 313 kts 93°
2026-05-06 03:36 35.40999 -90.09561 8443 ft 309 kts 93°
2026-05-06 03:36 35.40958 -90.06971 8113 ft 308 kts 94°
2026-05-06 03:36 35.40898 -90.04361 7653 ft 304 kts 98°
2026-05-06 03:37 35.40413 -90.01909 7177 ft 289 kts 123°
2026-05-06 03:37 35.39161 -90.00142 6749 ft 266 kts 156°
2026-05-06 03:37 35.37504 -89.99464 6355 ft 245 kts 182°
2026-05-06 03:37 35.35815 -89.99369 6030 ft 243 kts 187°
2026-05-06 03:38 35.34133 -89.99338 5743 ft 241 kts 186°
2026-05-06 03:38 35.32486 -89.99303 5443 ft 238 kts 187°
2026-05-06 03:38 35.30838 -89.99268 5149 ft 236 kts 186°
2026-05-06 03:38 35.29208 -89.99234 4869 ft 231 kts 186°
2026-05-06 03:39 35.27657 -89.99194 4587 ft 211 kts 188°
2026-05-06 03:39 35.26266 -89.99151 4300 ft 190 kts 188°
2026-05-06 03:39 35.24990 -89.99121 4068 ft 180 kts 188°
2026-05-06 03:39 35.23748 -89.99102 3848 ft 178 kts 187°
2026-05-06 03:40 35.22499 -89.99083 3641 ft 180 kts 187°
2026-05-06 03:40 35.21282 -89.99060 3423 ft 174 kts 187°
2026-05-06 03:40 35.20096 -89.99037 3188 ft 169 kts 187°
2026-05-06 03:40 35.18915 -89.99016 2993 ft 169 kts 187°
2026-05-06 03:41 35.17747 -89.98993 2769 ft 167 kts 188°
2026-05-06 03:41 35.16599 -89.98971 2533 ft 157 kts 187°
2026-05-06 03:41 35.15579 -89.98942 2330 ft 140 kts 188°
2026-05-06 03:41 35.14625 -89.98925 2160 ft 136 kts 187°
2026-05-06 03:42 35.13668 -89.98911 2005 ft 139 kts 186°
2026-05-06 03:42 35.12716 -89.98893 1871 ft 137 kts 185°
2026-05-06 03:42 35.11770 -89.98876 1674 ft 136 kts 185°
2026-05-06 03:42 35.10821 -89.98857 1486 ft 136 kts 185°
2026-05-06 03:43 35.09888 -89.98838 1290 ft 133 kts 184°
2026-05-06 03:43 35.08941 -89.98822 1105 ft 139 kts 182°
2026-05-06 03:43 35.07935 -89.98802 918 ft 150 kts 180°
2026-05-06 03:43 35.06880 -89.98779 741 ft 153 kts 180°
2026-05-06 03:44 35.05810 -89.98757 503 ft 156 kts 180°
2026-05-06 03:44 35.04728 -89.98733 324 ft 154 kts 179°
2026-05-06 03:44 35.03783 -89.98715 319 ft 119 kts 180°
2026-05-06 03:44 35.03109 -89.98708 327 ft 78 kts 180°
2026-05-06 03:45 35.02686 -89.98699 327 ft 44 kts 179°
2026-05-06 03:45 35.02534 -89.98671 332 ft 14 kts 143°
2026-05-06 03:45 35.02513 -89.98590 329 ft 9 kts 72°
2026-05-06 03:45 35.02580 -89.98561 329 ft 14 kts 359°
2026-05-06 03:46 35.02680 -89.98563 327 ft 14 kts 359°
2026-05-06 03:46 35.02774 -89.98562 327 ft 12 kts 357°
2026-05-06 03:46 35.02871 -89.98568 327 ft 17 kts 358°
2026-05-06 03:46 35.02991 -89.98568 326 ft 16 kts 360°
2026-05-06 03:47 35.03112 -89.98574 327 ft 18 kts 359°
2026-05-06 03:47 35.03237 -89.98572 327 ft 17 kts
2026-05-06 03:47 35.03364 -89.98579 327 ft 19 kts 358°
2026-05-06 03:47 35.03514 -89.98583 325 ft 24 kts 359°
2026-05-06 03:48 35.03678 -89.98583 322 ft 23 kts
2026-05-06 03:48 35.03841 -89.98589 318 ft 25 kts 358°
2026-05-06 03:48 35.04022 -89.98593 314 ft 26 kts 358°
2026-05-06 03:48 35.04198 -89.98600 312 ft 25 kts 358°
2026-05-06 03:49 35.04371 -89.98605 309 ft 24 kts 359°
2026-05-06 03:49 35.04567 -89.98608 312 ft 40 kts 359°
2026-05-06 03:49 35.04748 -89.98609 310 ft 21 kts 360°
2026-05-06 03:49 35.04882 -89.98610 311 ft 15 kts 360°
2026-05-06 03:50 35.04989 -89.98591 310 ft 18 kts 19°
2026-05-06 03:50 35.05098 -89.98532 307 ft 15 kts 22°
2026-05-06 03:50 35.05225 -89.98513 296 ft 24 kts 359°
2026-05-06 03:50 35.05393 -89.98513 286 ft 25 kts
2026-05-06 03:51 35.05539 -89.98510 274 ft 19 kts
2026-05-06 03:51 35.05677 -89.98507 267 ft 20 kts 358°
2026-05-06 03:51 35.05820 -89.98508 267 ft 21 kts
2026-05-06 03:51 35.05942 -89.98511 269 ft 14 kts 357°
2026-05-06 03:52 35.06028 -89.98518 270 ft 14 kts 351°
2026-05-06 03:52 35.06154 -89.98531 270 ft 20 kts 360°
2026-05-06 03:52 35.06282 -89.98524 271 ft 17 kts
2026-05-06 03:52 35.06369 -89.98471 271 ft 13 kts 72°
2026-05-06 03:53 35.06362 -89.98385 270 ft 8 kts 96°
2026-05-06 03:53 35.06353 -89.98351 275 ft 2 kts 125°
2026-05-06 03:53 35.06341 -89.98343 271 ft 1 kts 160°
2026-05-06 03:53 35.06326 -89.98341 270 ft 3 kts 175°
2026-05-06 03:54 35.06312 -89.98342 271 ft 1 kts 183°
2026-05-06 03:54 35.06306 -89.98343 271 ft 0 kts 183°